Hourly Data Report for April 24, 2004

SHERBROOKE A
QUEBEC

45°26'00.000" N
71°41'00.000" W
241.40 m
7028124
71610
YSC

Download Data

Hourly Data (April 2004)
Hourly Data Report for April 24, 2004
TIME
LST
Temp Definition
°C
Dew Point Definition
°C
Rel Hum Definition
%
Precip. Amount Definition
mm

Wind Dir Definition
10's deg

Wind Spd Definition
km/h
Visibility Definition
km
Stn Press Definition
kPa
Hmdx Definition


Wind Chill Definition


Weather Definition


00:00 1.2 -2.1 79     0 15.0 98.77      
01:00 1.8 -1.3 80     0 15.0 98.65      
02:00 2.7 0.0 82   6 4 15.0 98.56      
03:00 3.6 1.4 86   10 4 15.0 98.49      
04:00 4.1 2.0 86     0 15.0 98.46     Rain
05:00 4.8 3.0 88     0 15.0 98.45     Rain
06:00 5.8 4.7 93   26 22 4.8 98.49     Rain
07:00 5.3 4.3 93   26 6 19.3 98.52     Drizzle
08:00 5.5 4.0 90   28 30 24.1 98.56     Cloudy
09:00 5.7 2.2 78   28 32 24.1 98.59     Cloudy
10:00 5.5 0.8 72   29 24 24.1 98.66     Cloudy
11:00 5.0 1.1 76   30 22 16.1 98.72     Rain Showers
12:00 4.1 -0.4 72   30 37 9.7 98.69     Rain Showers,Snow Pellets
13:00 6.5 -2.2 54   32 33 24.1 98.73     Mostly Cloudy
14:00 5.8 -10.2 31   31 43 24.1 98.86     Mainly Clear
15:00 6.6 -11.2 27   30 41 24.1 98.99     Mainly Clear
16:00 5.5 -13.7 24   30 43 24.1 99.12     Clear
17:00 5.0 -12.2 28   30 32 15.0 99.22      
18:00 3.4 -14.4 26   31 26 15.0 99.35      
19:00 1.8 -14.5 29   32 17 15.0 99.48      
20:00 0.2 -14.7 32   34 15 15.0 99.65      
21:00 -0.5 -14.9 33   34 20 15.0 99.76   -6  
22:00 -1.3 -14.6 36   33 11 15.0 99.79   -5  
23:00 -2.3 -14.5 39   34 6 15.0 99.83   -5  

Notes on Data Quality.

Legend

  • E = Estimated
  • M = Missing
  • NA = Not Available*
  • [empty] = Indicates an unobserved value
Date modified: